Location: Bakhuizen
(52.8696°N, 5.4575°E)
Time: 18:50:43
(UTC+00:00)

Cosmos 44 - Pass Details

Date: 11 May 2021
Orbit: 571 x 791 km, 65.1° (Epoch: 22 June)

Event Time Altitude Azimuth Distance (km) Brightness Sun altitude
Rises 21:40:50 0° 316° (NW) 3,298 8.3 -14.9°
Reaches altitude 10° 21:43:17 10° 316° (NW) 2,365 7.3 -15.0°
Maximum altitude 21:48:46 82° 230° (SW) 794 3.5 -15.4°
Enters shadow 21:51:59 25° 144° (SE) 1,524 4.4 -15.6°
